EN

Hourly Weather Amangeldy (Saryagashskiy rayon)

Today, 28 January, Thursday

Time Temperature Precipitation Wind Pressure Humidity
00:00 +1°C° 0 mm 1 mps 737 mmHg 62%
01:00 +1°C° 0 mm 1 mps 737 mmHg 61%
02:00 +1°C° 0 mm 1 mps 737 mmHg 60%
03:00 +1°C° 0 mm 1 mps 737 mmHg 59%
04:00 +1°C° 0 mm 1 mps 737 mmHg 58%
05:00 -1°C° 0 mm 2 mps 737 mmHg 57%
06:00 -1°C° 0 mm 2 mps 737 mmHg 56%
07:00 -1°C° 0 mm 2 mps 737 mmHg 55%
08:00 +1°C° 0 mm 1 mps 737 mmHg 54%
09:00 +3°C° 0 mm 1 mps 737 mmHg 49%
10:00 +4°C° 0 mm 1 mps 737 mmHg 45%
11:00 +6°C° 0 mm 1 mps 737 mmHg 40%
12:00 +7°C° 0 mm 1 mps 737 mmHg 38%
13:00 +8°C° 0 mm 1 mps 737 mmHg 37%
14:00 +8°C° 0 mm 0 mps 737 mmHg 35%
15:00 +8°C° 0 mm 1 mps 737 mmHg 39%
16:00 +7°C° 0 mm 1 mps 737 mmHg 43%
17:00 +6°C° 0 mm 1 mps 736 mmHg 47%
18:00 +5°C° 0 mm 1 mps 737 mmHg 49%
19:00 +4°C° 0 mm 1 mps 737 mmHg 52%
20:00 +3°C° 0 mm 1 mps 737 mmHg 54%
21:00 +3°C° 0 mm 1 mps 737 mmHg 54%
22:00 +2°C° 0 mm 2 mps 737 mmHg 54%
23:00 +2°C° 0 mm 2 mps 737 mmHg 54%

Tomorrow, 29 January, Friday

Time Temperature Precipitation Wind Pressure Humidity
00:00 +1°C° 0 mm 2 mps 737 mmHg 52%
01:00 +2°C° 0 mm 1 mps 736 mmHg 50%
02:00 +2°C° 0 mm 1 mps 736 mmHg 48%
03:00 +2°C° 0 mm 1 mps 736 mmHg 47%
04:00 +1°C° 0 mm 2 mps 736 mmHg 45%
05:00 +1°C° 0 mm 2 mps 736 mmHg 44%
06:00 +1°C° 0 mm 2 mps 736 mmHg 43%
07:00 +1°C° 0 mm 2 mps 736 mmHg 42%
08:00 +2°C° 0 mm 1 mps 736 mmHg 41%
09:00 +4°C° 0 mm 1 mps 736 mmHg 38%
10:00 +5°C° 0 mm 1 mps 735 mmHg 34%
11:00 +7°C° 0 mm 1 mps 735 mmHg 30%
12:00 +8°C° 0 mm 1 mps 735 mmHg 29%
13:00 +9°C° 0 mm 1 mps 734 mmHg 28%
14:00 +10°C° 0 mm 1 mps 734 mmHg 27%
15:00 +9°C° 0 mm 1 mps 734 mmHg 31%
16:00 +8°C° 0 mm 1 mps 734 mmHg 35%
17:00 +8°C° 0 mm 1 mps 734 mmHg 39%
18:00 +7°C° 0 mm 1 mps 734 mmHg 41%
19:00 +6°C° 0 mm 1 mps 734 mmHg 43%
20:00 +4°C° 0 mm 2 mps 734 mmHg 45%
21:00 +3°C° 0 mm 2 mps 733 mmHg 44%
22:00 +3°C° 0 mm 2 mps 733 mmHg 43%
23:00 +3°C° 0 mm 2 mps 733 mmHg 42%

Day after tomorrow, 30 January, Saturday

Time Temperature Precipitation Wind Pressure Humidity
00:00 +2°C° 0 mm 2 mps 733 mmHg 40%
01:00 +2°C° 0 mm 2 mps 733 mmHg 39%
02:00 +2°C° 0 mm 2 mps 733 mmHg 37%
03:00 +2°C° 0 mm 2 mps 732 mmHg 36%
04:00 +2°C° 0 mm 2 mps 732 mmHg 36%
05:00 +1°C° 0 mm 3 mps 732 mmHg 35%
06:00 +1°C° 0 mm 3 mps 731 mmHg 33%
07:00 +1°C° 0 mm 3 mps 731 mmHg 31%
08:00 +1°C° 0 mm 3 mps 731 mmHg 29%
09:00 +3°C° 0 mm 3 mps 731 mmHg 27%
10:00 +6°C° 0 mm 2 mps 731 mmHg 25%
11:00 +8°C° 0 mm 2 mps 731 mmHg 23%
12:00 +9°C° 0 mm 2 mps 730 mmHg 23%
13:00 +10°C° 0 mm 2 mps 730 mmHg 23%
14:00 +12°C° 0 mm 2 mps 729 mmHg 23%
15:00 +12°C° 0 mm 2 mps 729 mmHg 26%
16:00 +11°C° 0 mm 1 mps 729 mmHg 29%
17:00 +10°C° 0 mm 1 mps 729 mmHg 32%
18:00 +9°C° 0 mm 1 mps 729 mmHg 33%
19:00 +9°C° 0 mm 1 mps 729 mmHg 34%
20:00 +8°C° 0 mm 2 mps 729 mmHg 35%
21:00 +7°C° 0 mm 2 mps 729 mmHg 36%
22:00 +7°C° 0 mm 2 mps 729 mmHg 36%
23:00 +7°C° 0 mm 3 mps 729 mmHg 37%

31 January, Sunday

Time Temperature Precipitation Wind Pressure Humidity
00:00 +7°C° 0 mm 2 mps 729 mmHg 37%
01:00 +7°C° 0 mm 2 mps 729 mmHg 38%
02:00 +9°C° 0 mm 1 mps 728 mmHg 38%
03:00 +8°C° 0 mm 2 mps 728 mmHg 38%
04:00 +8°C° 0 mm 3 mps 728 mmHg 38%
05:00 +8°C° 0 mm 3 mps 727 mmHg 38%
06:00 +8°C° 0 mm 3 mps 727 mmHg 41%
07:00 +8°C° 0 mm 3 mps 727 mmHg 43%
08:00 +8°C° 0 mm 3 mps 727 mmHg 46%
09:00 +8°C° 0 mm 3 mps 727 mmHg 42%
10:00 +9°C° 0 mm 2 mps 726 mmHg 38%
11:00 +11°C° 0 mm 1 mps 726 mmHg 35%
12:00 +12°C° 0 mm 2 mps 726 mmHg 33%
13:00 +12°C° 0 mm 3 mps 726 mmHg 31%
14:00 +13°C° 0 mm 4 mps 726 mmHg 29%
15:00 +12°C° 0 mm 3 mps 726 mmHg 29%
16:00 +11°C° 0 mm 3 mps 726 mmHg 30%
17:00 +12°C° 0 mm 2 mps 727 mmHg 31%
18:00 +10°C° 0 mm 2 mps 727 mmHg 36%
19:00 +9°C° 0 mm 2 mps 728 mmHg 42%
20:00 +9°C° 0 mm 2 mps 729 mmHg 47%
21:00 +9°C° 0 mm 3 mps 729 mmHg 46%
22:00 +7°C° 0 mm 4 mps 730 mmHg 46%
23:00 +7°C° 0 mm 5 mps 730 mmHg 45%

1 February, Monday

Time Temperature Precipitation Wind Pressure Humidity
00:00 +7°C° 0 mm 4 mps 731 mmHg 49%
01:00 +8°C° 0 mm 3 mps 731 mmHg 54%
02:00 +7°C° 0 mm 2 mps 731 mmHg 58%
03:00 +7°C° 0 mm 2 mps 732 mmHg 64%
04:00 +5°C° 0 mm 3 mps 732 mmHg 70%
05:00 +5°C° 0 mm 3 mps 732 mmHg 75%
06:00 +5°C° 0 mm 3 mps 733 mmHg 76%
07:00 +5°C° 0 mm 3 mps 733 mmHg 77%
08:00 +6°C° 0 mm 2 mps 734 mmHg 78%
09:00 +5°C° 0.4 mm 3 mps 734 mmHg 78%
10:00 +5°C° 0.4 mm 3 mps 734 mmHg 79%
11:00 +5°C° 0.4 mm 4 mps 735 mmHg 79%
12:00 +7°C° 0.1 mm 3 mps 735 mmHg 77%
13:00 +8°C° 0.1 mm 3 mps 735 mmHg 74%
14:00 +9°C° 0.1 mm 3 mps 735 mmHg 71%
15:00 +9°C° 0 mm 2 mps 735 mmHg 71%
16:00 +9°C° 0 mm 2 mps 736 mmHg 72%
17:00 +9°C° 0 mm 2 mps 736 mmHg 73%
18:00 +9°C° 0 mm 1 mps 736 mmHg 76%
19:00 +9°C° 0 mm 1 mps 737 mmHg 79%
20:00 +8°C° 0 mm 1 mps 737 mmHg 81%
21:00 +8°C° 0 mm 1 mps 737 mmHg 81%
22:00 +8°C° 0 mm 1 mps 738 mmHg 82%
23:00 +7°C° 0 mm 0 mps 738 mmHg 82%

2 February, Tuesday

Time Temperature Precipitation Wind Pressure Humidity
00:00 +8°C° 0 mm 1 mps 738 mmHg 81%
01:00 +8°C° 0 mm 1 mps 738 mmHg 81%
02:00 +8°C° 0 mm 1 mps 738 mmHg 80%
03:00 +7°C° 0 mm 1 mps 738 mmHg 80%
04:00 +7°C° 0 mm 1 mps 738 mmHg 80%
05:00 +7°C° 0 mm 1 mps 738 mmHg 80%
06:00 +7°C° 0 mm 1 mps 738 mmHg 79%
07:00 +7°C° 0 mm 1 mps 738 mmHg 78%
08:00 +7°C° 0 mm 1 mps 738 mmHg 77%
09:00 +8°C° 0 mm 1 mps 739 mmHg 71%
10:00 +10°C° 0 mm 1 mps 739 mmHg 65%
11:00 +11°C° 0 mm 1 mps 739 mmHg 58%
12:00 +12°C° 0 mm 2 mps 738 mmHg 56%
13:00 +13°C° 0 mm 2 mps 738 mmHg 54%
14:00 +14°C° 0 mm 2 mps 738 mmHg 51%
15:00 +13°C° 0 mm 2 mps 738 mmHg 54%
16:00 +13°C° 0 mm 2 mps 738 mmHg 56%
17:00 +13°C° 0 mm 2 mps 738 mmHg 59%
18:00 +12°C° 0 mm 2 mps 738 mmHg 63%
19:00 +10°C° 0 mm 2 mps 738 mmHg 68%
20:00 +8°C° 0 mm 2 mps 738 mmHg 72%
21:00 +8°C° 0 mm 2 mps 738 mmHg 72%
22:00 +8°C° 0 mm 2 mps 738 mmHg 71%
23:00 +7°C° 0 mm 2 mps 738 mmHg 71%
Show more